Time,TemperatureF,DewpointF,PressureIn,WindDirection,WindDirectionDegrees,WindSpeedMPH,WindSpeedGustMPH,Humidity,HourlyPrecipIn,Conditions,Clouds,dailyrainin,SoftwareType,DateUTC
2013-12-09 00:01:00,31.2,27.5,30.13,ESE,121,9.0,19.0,86,0.00,,---,0.00,VWS V13.01,2013-12-09 05:01:00,
2013-12-09 00:02:00,31.3,27.3,30.13,SE,145,11.0,19.0,85,0.00,,---,0.00,VWS V13.01,2013-12-09 05:02:00,
2013-12-09 00:07:00,31.4,27.4,30.13,SE,144,14.0,19.0,85,0.00,,---,0.00,VWS V13.01,2013-12-09 05:07:00,
2013-12-09 00:12:00,31.5,27.5,30.13,SE,140,5.0,17.0,85,0.00,,---,0.00,VWS V13.01,2013-12-09 05:12:00,
2013-12-09 00:17:00,31.6,27.6,30.12,SE,133,6.0,17.0,85,0.00,,---,0.00,VWS V13.01,2013-12-09 05:17:00,
2013-12-09 00:22:00,31.6,27.6,30.12,SE,139,1.0,14.0,85,0.00,,---,0.00,VWS V13.01,2013-12-09 05:22:00,
2013-12-09 00:27:00,31.6,27.9,30.12,SSE,153,6.0,14.0,86,0.00,,---,0.00,VWS V13.01,2013-12-09 05:27:00,
2013-12-09 00:32:00,31.6,27.9,30.11,SE,137,14.0,14.0,86,0.00,,---,0.00,VWS V13.01,2013-12-09 05:32:00,
2013-12-09 00:37:00,31.6,28.2,30.10,SSE,165,4.0,14.0,87,0.00,,---,0.00,VWS V13.01,2013-12-09 05:37:00,
2013-12-09 00:42:00,31.7,28.3,30.10,SE,130,4.0,14.0,87,0.00,,---,0.00,VWS V13.01,2013-12-09 05:42:00,
2013-12-09 00:47:00,31.7,28.3,30.09,ESE,123,12.0,18.0,87,0.00,,---,0.00,VWS V13.01,2013-12-09 05:47:00,
2013-12-09 00:52:00,31.7,28.3,30.09,SE,137,3.0,11.0,87,0.00,,---,0.00,VWS V13.01,2013-12-09 05:52:00,
2013-12-09 00:57:00,31.8,28.4,30.09,SE,131,3.0,17.0,87,0.00,,---,0.00,VWS V13.01,2013-12-09 05:57:00,
2013-12-09 01:02:00,31.9,28.8,30.08,SSW,194,2.0,14.0,88,0.00,,---,0.00,VWS V13.01,2013-12-09 06:02:00,
2013-12-09 01:07:00,31.9,28.8,30.08,South,186,3.0,14.0,88,0.00,,---,0.00,VWS V13.01,2013-12-09 06:07:00,
2013-12-09 01:12:00,31.9,28.8,30.08,SSE,150,7.0,14.0,88,0.00,,---,0.00,VWS V13.01,2013-12-09 06:12:00,
2013-12-09 01:17:00,32.0,28.9,30.08,SSE,152,4.0,14.0,88,0.00,,---,0.00,VWS V13.01,2013-12-09 06:17:00,
2013-12-09 01:22:00,32.1,29.0,30.07,SSW,202,6.0,9.0,88,0.00,,---,0.00,VWS V13.01,2013-12-09 06:22:00,
2013-12-09 01:27:00,32.3,29.1,30.07,SSE,163,2.0,9.0,88,0.00,,---,0.00,VWS V13.01,2013-12-09 06:27:00,
2013-12-09 01:32:00,32.4,29.0,30.07,SE,144,0.0,9.0,87,0.00,,---,0.00,VWS V13.01,2013-12-09 06:32:00,
2013-12-09 01:37:00,32.6,29.2,30.06,South,174,3.0,9.0,87,0.00,,---,0.00,VWS V13.01,2013-12-09 06:37:00,
2013-12-09 01:42:00,32.7,29.3,30.07,SE,140,6.0,11.0,87,0.00,,---,0.00,VWS V13.01,2013-12-09 06:42:00,
2013-12-09 01:47:00,32.8,29.4,30.07,SE,138,1.0,11.0,87,0.00,,---,0.00,VWS V13.01,2013-12-09 06:47:00,
2013-12-09 01:52:00,32.9,29.5,30.06,SSE,155,1.0,8.0,87,0.00,,---,0.00,VWS V13.01,2013-12-09 06:52:00,
2013-12-09 01:57:00,33.0,29.6,30.06,SSE,156,2.0,10.0,87,0.00,,---,0.00,VWS V13.01,2013-12-09 06:57:00,
2013-12-09 02:02:00,33.1,29.7,30.06,SE,138,5.0,12.0,87,0.00,,---,0.00,VWS V13.01,2013-12-09 07:02:00,
2013-12-09 02:07:00,33.2,30.0,30.06,SSE,166,1.0,12.0,88,0.00,,---,0.00,VWS V13.01,2013-12-09 07:07:00,
2013-12-09 02:12:00,33.3,29.9,30.06,SE,130,8.0,11.0,87,0.00,,---,0.00,VWS V13.01,2013-12-09 07:12:00,
2013-12-09 02:17:00,33.4,30.0,30.06,SSE,162,7.0,15.0,87,0.00,,---,0.00,VWS V13.01,2013-12-09 07:17:00,
2013-12-09 02:22:00,33.3,30.1,30.06,ESE,109,3.0,9.0,88,0.00,,---,0.00,VWS V13.01,2013-12-09 07:22:00,
2013-12-09 02:27:00,33.4,30.2,30.06,SE,135,4.0,12.0,88,0.00,,---,0.00,VWS V13.01,2013-12-09 07:27:00,
2013-12-09 02:32:00,33.4,30.5,30.05,SSE,157,5.0,8.0,89,0.00,,---,0.00,VWS V13.01,2013-12-09 07:32:00,
2013-12-09 02:37:00,33.4,30.5,30.05,SSE,164,4.0,11.0,89,0.00,,---,0.00,VWS V13.01,2013-12-09 07:37:00,
2013-12-09 02:42:00,33.4,30.8,30.05,SE,142,3.0,10.0,90,0.00,,---,0.00,VWS V13.01,2013-12-09 07:42:00,
2013-12-09 02:47:00,33.4,30.8,30.05,SE,136,4.0,10.0,90,0.00,,---,0.00,VWS V13.01,2013-12-09 07:47:00,
2013-12-09 02:52:00,33.5,30.9,30.04,SSE,168,4.0,12.0,90,0.00,,---,0.00,VWS V13.01,2013-12-09 07:52:00,
2013-12-09 02:57:00,33.6,31.0,30.04,SSE,148,8.0,12.0,90,0.00,,---,0.00,VWS V13.01,2013-12-09 07:57:00,
2013-12-09 03:02:00,33.6,31.0,30.04,SSE,147,4.0,7.0,90,0.00,,---,0.00,VWS V13.01,2013-12-09 08:02:00,
2013-12-09 03:07:00,33.8,31.5,30.03,SSE,160,3.0,15.0,91,0.00,,---,0.00,VWS V13.01,2013-12-09 08:07:00,
2013-12-09 03:12:00,34.0,31.6,30.03,ESE,119,3.0,10.0,91,0.00,,---,0.00,VWS V13.01,2013-12-09 08:12:00,
2013-12-09 03:17:00,34.2,31.9,30.03,SE,128,3.0,10.0,91,0.00,,---,0.00,VWS V13.01,2013-12-09 08:17:00,
2013-12-09 03:22:00,34.4,32.0,30.03,SSE,160,2.0,8.0,91,0.00,,---,0.00,VWS V13.01,2013-12-09 08:22:00,
2013-12-09 03:27:00,34.4,32.0,30.03,SE,142,3.0,13.0,91,0.00,,---,0.00,VWS V13.01,2013-12-09 08:27:00,
2013-12-09 03:32:00,34.4,31.8,30.03,ESE,114,7.0,12.0,90,0.00,,---,0.00,VWS V13.01,2013-12-09 08:32:00,
2013-12-09 03:37:00,34.3,31.7,30.02,SSE,150,8.0,14.0,90,0.00,,---,0.00,VWS V13.01,2013-12-09 08:37:00,
2013-12-09 03:42:00,34.3,31.7,30.02,SSE,148,2.0,13.0,90,0.00,,---,0.00,VWS V13.01,2013-12-09 08:42:00,
2013-12-09 03:47:00,34.4,32.0,30.02,SSE,150,5.0,13.0,91,0.00,,---,0.00,VWS V13.01,2013-12-09 08:47:00,
2013-12-09 03:52:00,34.7,32.3,30.01,SSE,151,5.0,9.0,91,0.00,,---,0.00,VWS V13.01,2013-12-09 08:52:00,
2013-12-09 03:56:00,34.8,32.5,30.01,SE,126,5.0,10.0,91,0.00,,---,0.00,VWS V13.01,2013-12-09 08:56:00,
2013-12-09 04:01:00,35.0,32.6,30.01,SSE,152,7.0,11.0,91,0.00,,---,0.00,VWS V13.01,2013-12-09 09:01:00,
2013-12-09 04:06:00,35.0,32.6,30.00,SSE,148,5.0,11.0,91,0.00,,---,0.00,VWS V13.01,2013-12-09 09:06:00,
2013-12-09 04:11:00,35.0,32.6,30.01,South,181,4.0,9.0,91,0.00,,---,0.00,VWS V13.01,2013-12-09 09:11:00,
2013-12-09 04:16:00,34.9,32.5,30.01,South,171,0.0,9.0,91,0.00,,---,0.00,VWS V13.01,2013-12-09 09:16:00,
2013-12-09 04:21:00,35.0,32.9,30.02,SSE,155,3.0,8.0,92,0.00,,---,0.00,VWS V13.01,2013-12-09 09:21:00,
2013-12-09 04:26:00,35.0,32.9,30.02,SE,136,6.0,9.0,92,0.00,,---,0.00,VWS V13.01,2013-12-09 09:26:00,
2013-12-09 04:31:00,35.0,32.9,30.02,SE,144,2.0,5.0,92,0.00,,---,0.00,VWS V13.01,2013-12-09 09:31:00,
2013-12-09 04:36:00,34.8,32.7,30.01,SSE,150,1.0,6.0,92,0.00,,---,0.00,VWS V13.01,2013-12-09 09:36:00,
2013-12-09 04:41:00,34.9,33.1,30.01,SSE,148,2.0,3.0,93,0.00,,---,0.00,VWS V13.01,2013-12-09 09:41:00,
2013-12-09 04:46:00,35.0,33.2,30.01,SE,132,2.0,8.0,93,0.00,,---,0.00,VWS V13.01,2013-12-09 09:46:00,
2013-12-09 04:51:00,35.0,33.2,30.01,SE,140,2.0,5.0,93,0.00,,---,0.00,VWS V13.01,2013-12-09 09:51:00,
2013-12-09 04:56:00,35.1,33.3,30.01,SE,136,0.0,5.0,93,0.00,,---,0.00,VWS V13.01,2013-12-09 09:56:00,
2013-12-09 05:01:00,35.2,33.4,30.01,SSE,148,3.0,4.0,93,0.00,,---,0.00,VWS V13.01,2013-12-09 10:01:00,
2013-12-09 05:06:00,35.3,33.5,30.01,SE,142,1.0,5.0,93,0.00,,---,0.00,VWS V13.01,2013-12-09 10:06:00,
2013-12-09 05:11:00,35.5,34.0,30.01,SE,137,0.0,2.0,94,0.00,,---,0.00,VWS V13.01,2013-12-09 10:11:00,
2013-12-09 05:16:00,35.6,34.0,30.01,SE,139,2.0,7.0,94,0.00,,---,0.00,VWS V13.01,2013-12-09 10:16:00,
2013-12-09 05:21:00,35.9,34.3,30.01,SSE,149,0.0,3.0,94,0.00,,---,0.00,VWS V13.01,2013-12-09 10:21:00,
2013-12-09 05:26:00,36.1,34.5,30.01,SSE,149,0.0,4.0,94,0.00,,---,0.00,VWS V13.01,2013-12-09 10:26:00,
2013-12-09 05:31:00,36.2,34.6,30.01,SSE,164,2.0,2.0,94,0.00,,---,0.00,VWS V13.01,2013-12-09 10:31:00,
2013-12-09 05:36:00,36.3,34.7,30.01,SE,142,0.0,3.0,94,0.00,,---,0.00,VWS V13.01,2013-12-09 10:36:00,
2013-12-09 05:41:00,36.4,34.8,30.01,SE,137,1.0,3.0,94,0.00,,---,0.00,VWS V13.01,2013-12-09 10:41:00,
2013-12-09 05:46:00,36.4,34.8,30.01,SE,138,1.0,4.0,94,0.00,,---,0.00,VWS V13.01,2013-12-09 10:46:00,
2013-12-09 05:51:00,36.4,34.8,30.01,SSE,155,0.0,4.0,94,0.00,,---,0.00,VWS V13.01,2013-12-09 10:51:00,
2013-12-09 05:56:00,36.5,34.9,30.00,SSE,155,0.0,4.0,94,0.00,,---,0.00,VWS V13.01,2013-12-09 10:56:00,
2013-12-09 06:00:00,36.5,35.2,30.00,SSE,155,1.0,1.0,95,0.00,,---,0.00,VWS V13.01,2013-12-09 11:00:00,
2013-12-09 06:05:00,36.5,35.2,30.00,SSE,155,0.0,2.0,95,0.00,,---,0.00,VWS V13.01,2013-12-09 11:05:00,
2013-12-09 06:10:00,36.5,34.9,30.00,SSE,155,0.0,0.0,94,0.00,,---,0.00,VWS V13.01,2013-12-09 11:10:00,
2013-12-09 06:15:00,36.4,34.8,30.01,SSE,155,0.0,1.0,94,0.00,,---,0.00,VWS V13.01,2013-12-09 11:15:00,
2013-12-09 06:20:00,36.4,34.8,30.01,SSE,155,0.0,0.0,94,0.00,,---,0.00,VWS V13.01,2013-12-09 11:20:00,
2013-12-09 06:25:00,36.3,34.7,30.00,SSE,155,0.0,1.0,94,0.00,,---,0.00,VWS V13.01,2013-12-09 11:25:00,
2013-12-09 06:30:00,36.2,34.9,30.00,SSE,155,0.0,0.0,95,0.00,,---,0.00,VWS V13.01,2013-12-09 11:30:00,
2013-12-09 06:35:00,36.2,34.9,30.00,SSE,155,1.0,2.0,95,0.01,,---,0.01,VWS V13.01,2013-12-09 11:35:00,
2013-12-09 06:40:00,36.3,35.0,30.00,South,171,2.0,5.0,95,0.01,,---,0.01,VWS V13.01,2013-12-09 11:40:00,
2013-12-09 06:45:00,37.1,36.1,30.00,South,191,6.0,6.0,96,0.01,,---,0.01,VWS V13.01,2013-12-09 11:45:00,
2013-12-09 06:50:00,37.9,36.9,29.99,South,182,2.0,6.0,96,0.01,,---,0.01,VWS V13.01,2013-12-09 11:50:00,
2013-12-09 06:55:00,38.3,37.3,29.99,SSW,200,4.0,6.0,96,0.02,,---,0.02,VWS V13.01,2013-12-09 11:55:00,
2013-12-09 07:00:00,38.7,37.7,30.00,SW,226,4.0,5.0,96,0.02,,---,0.02,VWS V13.01,2013-12-09 12:00:00,
2013-12-09 07:05:00,38.8,37.8,30.00,SSW,210,3.0,5.0,96,0.02,,---,0.02,VWS V13.01,2013-12-09 12:05:00,
2013-12-09 07:10:00,38.7,37.7,30.00,SW,223,1.0,3.0,96,0.03,,---,0.03,VWS V13.01,2013-12-09 12:10:00,
2013-12-09 07:15:00,38.4,37.4,30.01,SW,233,3.0,4.0,96,0.03,,---,0.03,VWS V13.01,2013-12-09 12:15:00,
2013-12-09 07:20:00,38.3,37.3,30.01,SW,230,4.0,4.0,96,0.03,,---,0.03,VWS V13.01,2013-12-09 12:20:00,
2013-12-09 07:25:00,38.3,37.3,30.01,WSW,238,4.0,5.0,96,0.04,,---,0.04,VWS V13.01,2013-12-09 12:25:00,
2013-12-09 07:30:00,38.4,37.4,30.01,SW,235,1.0,5.0,96,0.04,,---,0.04,VWS V13.01,2013-12-09 12:30:00,
2013-12-09 07:35:00,38.7,37.7,30.02,SW,232,2.0,6.0,96,0.04,,---,0.04,VWS V13.01,2013-12-09 12:35:00,
2013-12-09 07:40:00,38.9,37.9,30.02,WSW,237,3.0,8.0,96,0.04,,---,0.05,VWS V13.01,2013-12-09 12:40:00,
2013-12-09 07:45:00,39.1,38.1,30.02,WSW,245,4.0,8.0,96,0.04,,---,0.05,VWS V13.01,2013-12-09 12:45:00,
2013-12-09 07:50:00,39.4,38.4,30.03,SW,225,6.0,7.0,96,0.04,,---,0.05,VWS V13.01,2013-12-09 12:50:00,
2013-12-09 07:55:00,39.6,38.6,30.03,SW,229,4.0,7.0,96,0.06,,---,0.07,VWS V13.01,2013-12-09 12:55:00,
2013-12-09 08:00:00,39.6,38.6,30.03,SW,222,4.0,5.0,96,0.05,,---,0.07,VWS V13.01,2013-12-09 13:00:00,
2013-12-09 08:05:00,39.7,38.7,30.03,SW,217,6.0,6.0,96,0.06,,---,0.08,VWS V13.01,2013-12-09 13:05:00,
2013-12-09 08:10:00,39.7,38.7,30.02,SW,215,3.0,6.0,96,0.05,,---,0.08,VWS V13.01,2013-12-09 13:10:00,
2013-12-09 08:15:00,39.7,38.7,30.02,SSW,213,2.0,6.0,96,0.06,,---,0.09,VWS V13.01,2013-12-09 13:15:00,
2013-12-09 08:20:00,39.7,38.7,30.02,SSW,210,5.0,6.0,96,0.06,,---,0.09,VWS V13.01,2013-12-09 13:20:00,
2013-12-09 08:25:00,39.7,38.7,30.02,SSW,213,2.0,6.0,96,0.07,,---,0.10,VWS V13.01,2013-12-09 13:25:00,
2013-12-09 08:30:00,39.7,38.7,30.02,SSW,205,3.0,5.0,96,0.06,,---,0.10,VWS V13.01,2013-12-09 13:30:00,
2013-12-09 08:35:00,39.7,38.7,30.02,SW,218,2.0,6.0,96,0.07,,---,0.11,VWS V13.01,2013-12-09 13:35:00,
2013-12-09 08:40:00,39.7,38.7,30.02,SW,219,3.0,5.0,96,0.07,,---,0.11,VWS V13.01,2013-12-09 13:40:00,
2013-12-09 08:45:00,39.7,38.7,30.02,SW,219,3.0,6.0,96,0.08,,---,0.12,VWS V13.01,2013-12-09 13:45:00,
2013-12-09 08:50:00,39.7,38.7,30.02,SW,214,3.0,4.0,96,0.07,,---,0.12,VWS V13.01,2013-12-09 13:50:00,
2013-12-09 08:55:00,39.8,38.8,30.03,SW,236,5.0,8.0,96,0.08,,---,0.13,VWS V13.01,2013-12-09 13:55:00,
2013-12-09 09:00:00,39.8,38.8,30.03,SW,218,9.0,9.0,96,0.06,,---,0.13,VWS V13.01,2013-12-09 14:00:00,
2013-12-09 09:05:00,39.9,38.8,30.03,SSW,207,4.0,9.0,96,0.07,,---,0.14,VWS V13.01,2013-12-09 14:05:00,
2013-12-09 09:10:00,40.0,39.0,30.03,WSW,239,5.0,5.0,96,0.07,,---,0.15,VWS V13.01,2013-12-09 14:10:00,
2013-12-09 09:15:00,40.0,39.0,30.02,SW,229,7.0,8.0,96,0.07,,---,0.15,VWS V13.01,2013-12-09 14:15:00,
2013-12-09 09:20:00,40.1,39.0,30.03,SW,233,6.0,9.0,96,0.07,,---,0.16,VWS V13.01,2013-12-09 14:20:00,
2013-12-09 09:25:00,40.2,39.2,30.03,SW,225,7.0,10.0,96,0.08,,---,0.17,VWS V13.01,2013-12-09 14:25:00,
2013-12-09 09:31:00,40.2,39.2,30.03,SW,219,4.0,9.0,96,0.07,,---,0.17,VWS V13.01,2013-12-09 14:31:00,
2013-12-09 09:35:00,40.3,39.2,30.03,SW,222,3.0,10.0,96,0.08,,---,0.18,VWS V13.01,2013-12-09 14:35:00,
2013-12-09 09:40:00,40.3,39.2,30.03,WSW,249,5.0,8.0,96,0.07,,---,0.18,VWS V13.01,2013-12-09 14:40:00,
2013-12-09 09:45:00,40.4,39.3,30.03,SW,226,3.0,8.0,96,0.08,,---,0.19,VWS V13.01,2013-12-09 14:45:00,
2013-12-09 09:50:00,40.3,39.2,30.03,SW,231,5.0,7.0,96,0.07,,---,0.19,VWS V13.01,2013-12-09 14:50:00,
2013-12-09 09:56:00,40.3,39.2,30.03,WSW,238,3.0,9.0,96,0.07,,---,0.19,VWS V13.01,2013-12-09 14:56:00,
2013-12-09 10:01:00,40.4,39.3,30.03,SW,232,5.0,7.0,96,0.07,,---,0.20,VWS V13.01,2013-12-09 15:01:00,
2013-12-09 10:06:00,40.4,39.3,30.04,SW,217,7.0,12.0,96,0.07,,---,0.21,VWS V13.01,2013-12-09 15:06:00,
2013-12-09 10:11:00,40.4,39.3,30.04,WSW,240,4.0,10.0,96,0.06,,---,0.21,VWS V13.01,2013-12-09 15:11:00,
2013-12-09 10:16:00,40.4,39.3,30.04,SW,234,4.0,11.0,96,0.06,,---,0.21,VWS V13.01,2013-12-09 15:16:00,
2013-12-09 10:21:00,40.4,39.3,30.04,WSW,244,5.0,13.0,96,0.06,,---,0.22,VWS V13.01,2013-12-09 15:21:00,
2013-12-09 10:26:00,40.4,39.3,30.04,WSW,252,9.0,14.0,96,0.06,,---,0.22,VWS V13.01,2013-12-09 15:26:00,
2013-12-09 10:31:00,40.3,39.2,30.04,SW,229,13.0,14.0,96,0.06,,---,0.23,VWS V13.01,2013-12-09 15:31:00,
2013-12-09 10:36:00,40.3,39.2,30.04,SW,225,9.0,14.0,96,0.06,,---,0.23,VWS V13.01,2013-12-09 15:36:00,
2013-12-09 10:41:00,40.3,39.0,30.04,SW,214,6.0,9.0,95,0.05,,---,0.23,VWS V13.01,2013-12-09 15:41:00,
2013-12-09 10:46:00,40.2,38.9,30.04,WSW,246,8.0,17.0,95,0.06,,---,0.24,VWS V13.01,2013-12-09 15:46:00,
2013-12-09 10:51:00,40.2,38.9,30.04,West,265,3.0,11.0,95,0.05,,---,0.24,VWS V13.01,2013-12-09 15:51:00,
2013-12-09 10:56:00,40.1,38.8,30.04,SW,219,9.0,12.0,95,0.06,,---,0.25,VWS V13.01,2013-12-09 15:56:00,
2013-12-09 11:01:00,40.1,38.8,30.04,WSW,246,7.0,11.0,95,0.05,,---,0.25,VWS V13.01,2013-12-09 16:01:00,
2013-12-09 11:06:00,40.0,38.7,30.04,SW,227,11.0,13.0,95,0.05,,---,0.25,VWS V13.01,2013-12-09 16:06:00,
2013-12-09 11:11:00,40.0,38.7,30.04,SW,233,9.0,9.0,95,0.04,,---,0.25,VWS V13.01,2013-12-09 16:11:00,
2013-12-09 11:16:00,39.9,38.3,30.04,SSW,208,14.0,16.0,94,0.05,,---,0.26,VWS V13.01,2013-12-09 16:16:00,
2013-12-09 11:21:00,39.8,38.2,30.04,West,268,7.0,15.0,94,0.05,,---,0.26,VWS V13.01,2013-12-09 16:21:00,
2013-12-09 11:26:00,39.7,37.8,30.04,WSW,241,15.0,17.0,93,0.06,,---,0.27,VWS V13.01,2013-12-09 16:26:00,
2013-12-09 11:31:00,39.7,37.8,30.04,SW,229,9.0,19.0,93,0.04,,---,0.27,VWS V13.01,2013-12-09 16:31:00,
2013-12-09 11:36:00,39.7,37.8,30.04,WSW,248,13.0,19.0,93,0.04,,---,0.27,VWS V13.01,2013-12-09 16:36:00,
2013-12-09 11:41:00,39.7,37.8,30.04,West,259,7.0,15.0,93,0.04,,---,0.27,VWS V13.01,2013-12-09 16:41:00,
2013-12-09 11:46:00,39.6,37.5,30.04,WSW,244,7.0,19.0,92,0.04,,---,0.27,VWS V13.01,2013-12-09 16:46:00,
2013-12-09 11:51:00,39.6,37.8,30.04,West,271,4.0,15.0,93,0.03,,---,0.27,VWS V13.01,2013-12-09 16:51:00,
2013-12-09 11:56:00,39.4,37.3,30.04,SW,234,7.0,15.0,92,0.04,,---,0.28,VWS V13.01,2013-12-09 16:56:00,
2013-12-09 12:01:00,39.3,37.2,30.04,WNW,300,6.0,17.0,92,0.03,,---,0.28,VWS V13.01,2013-12-09 17:01:00,
2013-12-09 12:06:00,39.2,37.1,30.04,West,275,3.0,17.0,92,0.03,,---,0.28,VWS V13.01,2013-12-09 17:06:00,
2013-12-09 12:11:00,39.2,37.1,30.04,SW,234,5.0,13.0,92,0.03,,---,0.28,VWS V13.01,2013-12-09 17:11:00,
2013-12-09 12:16:00,39.2,37.1,30.05,SW,228,7.0,13.0,92,0.03,,---,0.28,VWS V13.01,2013-12-09 17:16:00,
2013-12-09 12:21:00,39.1,37.0,30.05,West,277,7.0,17.0,92,0.02,,---,0.29,VWS V13.01,2013-12-09 17:21:00,
2013-12-09 12:26:00,39.1,37.0,30.05,SSW,211,10.0,17.0,92,0.03,,---,0.29,VWS V13.01,2013-12-09 17:26:00,
2013-12-09 12:31:00,39.0,36.6,30.05,WNW,290,6.0,15.0,91,0.02,,---,0.29,VWS V13.01,2013-12-09 17:31:00,
2013-12-09 12:36:00,38.8,36.4,30.06,West,281,9.0,15.0,91,0.02,,---,0.29,VWS V13.01,2013-12-09 17:36:00,
2013-12-09 12:41:00,38.6,36.2,30.06,West,270,11.0,13.0,91,0.02,,---,0.29,VWS V13.01,2013-12-09 17:41:00,
2013-12-09 12:46:00,38.5,36.1,30.06,SW,232,12.0,15.0,91,0.02,,---,0.29,VWS V13.01,2013-12-09 17:46:00,
2013-12-09 12:51:00,38.4,36.0,30.06,WSW,257,8.0,17.0,91,0.02,,---,0.29,VWS V13.01,2013-12-09 17:51:00,
2013-12-09 12:56:00,38.4,36.0,30.06,WSW,244,13.0,18.0,91,0.02,,---,0.29,VWS V13.01,2013-12-09 17:56:00,
2013-12-09 13:01:00,38.4,35.7,30.05,West,261,9.0,12.0,90,0.01,,---,0.29,VWS V13.01,2013-12-09 18:01:00,
2013-12-09 13:06:00,38.4,35.7,30.06,WSW,252,10.0,12.0,90,0.01,,---,0.29,VWS V13.01,2013-12-09 18:06:00,
2013-12-09 13:11:00,38.5,35.5,30.05,WSW,245,5.0,16.0,89,0.01,,---,0.29,VWS V13.01,2013-12-09 18:11:00,
2013-12-09 13:16:00,38.6,35.4,30.05,SW,229,7.0,16.0,88,0.01,,---,0.29,VWS V13.01,2013-12-09 18:16:00,
2013-12-09 13:21:00,38.8,35.8,30.05,SW,236,12.0,12.0,89,0.01,,---,0.30,VWS V13.01,2013-12-09 18:21:00,
2013-12-09 13:26:00,39.5,36.5,30.05,SW,221,14.0,15.0,89,0.02,,---,0.30,VWS V13.01,2013-12-09 18:26:00,
2013-12-09 13:31:00,39.9,36.3,30.05,SSW,205,10.0,14.0,87,0.01,,---,0.30,VWS V13.01,2013-12-09 18:31:00,
2013-12-09 13:36:00,39.9,36.1,30.05,WSW,244,11.0,14.0,86,0.01,,---,0.30,VWS V13.01,2013-12-09 18:36:00,
2013-12-09 13:41:00,39.6,35.8,30.05,WSW,238,10.0,11.0,86,0.01,,---,0.30,VWS V13.01,2013-12-09 18:41:00,
2013-12-09 13:46:00,39.3,35.2,30.05,SW,232,9.0,16.0,85,0.01,,---,0.30,VWS V13.01,2013-12-09 18:46:00,
2013-12-09 13:51:00,39.1,35.0,30.05,SW,221,13.0,19.0,85,0.01,,---,0.30,VWS V13.01,2013-12-09 18:51:00,
2013-12-09 13:56:00,38.9,34.8,30.05,West,274,3.0,19.0,85,0.01,,---,0.30,VWS V13.01,2013-12-09 18:56:00,
2013-12-09 14:01:00,38.7,34.6,30.05,West,266,5.0,9.0,85,0.01,,---,0.30,VWS V13.01,2013-12-09 19:01:00,
2013-12-09 14:06:00,38.5,34.7,30.05,SW,231,5.0,13.0,86,0.01,,---,0.30,VWS V13.01,2013-12-09 19:06:00,
2013-12-09 14:11:00,38.6,34.8,30.04,WSW,242,7.0,15.0,86,0.01,,---,0.30,VWS V13.01,2013-12-09 19:11:00,
2013-12-09 14:16:00,38.6,34.8,30.04,SSW,213,10.0,15.0,86,0.01,,---,0.30,VWS V13.01,2013-12-09 19:16:00,
2013-12-09 14:21:00,38.4,34.3,30.04,SW,234,7.0,10.0,85,0.02,,---,0.31,VWS V13.01,2013-12-09 19:21:00,
2013-12-09 14:26:00,38.2,33.8,30.04,West,277,6.0,17.0,84,0.02,,---,0.31,VWS V13.01,2013-12-09 19:26:00,
2013-12-09 14:31:00,37.9,33.5,30.05,West,259,7.0,13.0,84,0.01,,---,0.31,VWS V13.01,2013-12-09 19:31:00,
2013-12-09 14:36:00,38.0,34.2,30.05,WSW,238,9.0,13.0,86,0.01,,---,0.31,VWS V13.01,2013-12-09 19:36:00,
2013-12-09 14:41:00,38.0,33.6,30.05,SW,229,8.0,18.0,84,0.01,,---,0.31,VWS V13.01,2013-12-09 19:41:00,
2013-12-09 14:46:00,37.9,33.8,30.05,SW,221,7.0,18.0,85,0.01,,---,0.31,VWS V13.01,2013-12-09 19:46:00,
2013-12-09 14:51:00,37.8,33.7,30.05,West,271,18.0,18.0,85,0.01,,---,0.31,VWS V13.01,2013-12-09 19:51:00,
2013-12-09 14:56:00,37.6,33.2,30.05,WSW,256,3.0,18.0,84,0.01,,---,0.31,VWS V13.01,2013-12-09 19:56:00,
2013-12-09 15:01:00,37.4,33.3,30.05,West,273,7.0,9.0,85,0.01,,---,0.31,VWS V13.01,2013-12-09 20:01:00,
2013-12-09 15:06:00,37.4,33.3,30.05,WSW,245,4.0,13.0,85,0.01,,---,0.31,VWS V13.01,2013-12-09 20:06:00,
2013-12-09 15:11:00,37.3,32.9,30.05,WSW,247,7.0,14.0,84,0.01,,---,0.31,VWS V13.01,2013-12-09 20:11:00,
2013-12-09 15:16:00,37.1,33.0,30.05,WSW,241,10.0,14.0,85,0.01,,---,0.31,VWS V13.01,2013-12-09 20:16:00,
2013-12-09 15:21:00,37.1,33.0,30.06,West,267,8.0,10.0,85,0.00,,---,0.31,VWS V13.01,2013-12-09 20:21:00,
2013-12-09 15:26:00,37.0,32.9,30.06,WSW,238,7.0,12.0,85,0.00,,---,0.31,VWS V13.01,2013-12-09 20:26:00,
2013-12-09 15:31:00,37.0,32.6,30.06,SW,235,10.0,14.0,84,0.00,,---,0.31,VWS V13.01,2013-12-09 20:31:00,
2013-12-09 15:36:00,37.0,32.9,30.06,West,259,8.0,14.0,85,0.00,,---,0.31,VWS V13.01,2013-12-09 20:36:00,
2013-12-09 15:41:00,36.9,32.8,30.06,SW,232,8.0,11.0,85,0.00,,---,0.31,VWS V13.01,2013-12-09 20:41:00,
2013-12-09 15:46:00,37.0,32.9,30.06,WSW,246,9.0,13.0,85,0.00,,---,0.31,VWS V13.01,2013-12-09 20:46:00,
2013-12-09 15:51:00,37.0,32.6,30.07,SW,234,7.0,15.0,84,0.00,,---,0.31,VWS V13.01,2013-12-09 20:51:00,
2013-12-09 15:56:00,37.0,32.0,30.07,SW,234,5.0,15.0,82,0.00,,---,0.31,VWS V13.01,2013-12-09 20:56:00,
2013-12-09 16:01:00,36.9,31.9,30.07,WSW,254,7.0,14.0,82,0.00,,---,0.31,VWS V13.01,2013-12-09 21:01:00,
2013-12-09 16:06:00,36.9,31.6,30.06,WSW,252,8.0,16.0,81,0.00,,---,0.31,VWS V13.01,2013-12-09 21:06:00,
2013-12-09 16:11:00,36.9,31.6,30.07,WSW,248,7.0,11.0,81,0.00,,---,0.31,VWS V13.01,2013-12-09 21:11:00,
2013-12-09 16:16:00,36.8,31.5,30.07,SSW,209,7.0,21.0,81,0.00,,---,0.31,VWS V13.01,2013-12-09 21:16:00,
2013-12-09 16:21:00,36.8,31.2,30.08,WSW,248,7.0,13.0,80,0.00,,---,0.31,VWS V13.01,2013-12-09 21:21:00,
2013-12-09 16:26:00,36.8,31.5,30.08,SW,228,6.0,16.0,81,0.00,,---,0.31,VWS V13.01,2013-12-09 21:26:00,
2013-12-09 16:31:00,36.7,31.1,30.08,SW,223,8.0,15.0,80,0.00,,---,0.31,VWS V13.01,2013-12-09 21:31:00,
2013-12-09 16:36:00,36.6,31.3,30.08,West,264,6.0,17.0,81,0.00,,---,0.31,VWS V13.01,2013-12-09 21:36:00,
2013-12-09 16:41:00,36.6,31.3,30.08,WSW,254,9.0,15.0,81,0.00,,---,0.31,VWS V13.01,2013-12-09 21:41:00,
2013-12-09 16:46:00,36.5,31.2,30.08,WSW,252,3.0,15.0,81,0.00,,---,0.31,VWS V13.01,2013-12-09 21:46:00,
2013-12-09 16:51:00,36.4,31.1,30.08,West,261,7.0,10.0,81,0.00,,---,0.31,VWS V13.01,2013-12-09 21:51:00,
2013-12-09 16:56:00,36.4,30.8,30.08,WSW,240,12.0,14.0,80,0.00,,---,0.31,VWS V13.01,2013-12-09 21:56:00,
2013-12-09 17:01:00,36.4,30.8,30.08,West,261,11.0,18.0,80,0.00,,---,0.31,VWS V13.01,2013-12-09 22:01:00,
2013-12-09 17:06:00,36.3,30.7,30.09,WSW,253,4.0,18.0,80,0.00,,---,0.31,VWS V13.01,2013-12-09 22:06:00,
2013-12-09 17:11:00,36.3,30.4,30.09,SW,230,7.0,20.0,79,0.00,,---,0.31,VWS V13.01,2013-12-09 22:11:00,
2013-12-09 17:16:00,36.2,30.6,30.09,SW,226,8.0,20.0,80,0.00,,---,0.31,VWS V13.01,2013-12-09 22:16:00,
2013-12-09 17:21:00,36.2,30.3,30.09,SW,221,8.0,11.0,79,0.00,,---,0.31,VWS V13.01,2013-12-09 22:21:00,
2013-12-09 17:26:00,36.1,30.2,30.09,WSW,240,11.0,17.0,79,0.00,,---,0.31,VWS V13.01,2013-12-09 22:26:00,
2013-12-09 17:31:00,36.1,30.2,30.10,SW,221,10.0,13.0,79,0.00,,---,0.31,VWS V13.01,2013-12-09 22:31:00,
2013-12-09 17:36:00,36.0,30.1,30.10,SW,229,8.0,13.0,79,0.00,,---,0.31,VWS V13.01,2013-12-09 22:36:00,
2013-12-09 17:41:00,36.0,30.1,30.10,SW,219,7.0,13.0,79,0.00,,---,0.31,VWS V13.01,2013-12-09 22:41:00,
2013-12-09 17:46:00,36.0,30.1,30.11,SSW,212,15.0,17.0,79,0.00,,---,0.31,VWS V13.01,2013-12-09 22:46:00,
2013-12-09 17:51:00,35.9,30.0,30.11,WSW,250,9.0,16.0,79,0.00,,---,0.31,VWS V13.01,2013-12-09 22:51:00,
2013-12-09 17:56:00,35.9,30.0,30.11,SW,223,9.0,16.0,79,0.00,,---,0.31,VWS V13.01,2013-12-09 22:56:00,
2013-12-09 18:01:00,35.9,30.3,30.11,WSW,250,5.0,10.0,80,0.00,,---,0.31,VWS V13.01,2013-12-09 23:01:00,
2013-12-09 18:06:00,35.8,29.9,30.11,SW,228,5.0,16.0,79,0.00,,---,0.31,VWS V13.01,2013-12-09 23:06:00,
2013-12-09 18:11:00,35.8,29.9,30.11,SW,219,12.0,13.0,79,0.00,,---,0.31,VWS V13.01,2013-12-09 23:11:00,
2013-12-09 18:16:00,35.7,29.8,30.11,West,261,7.0,14.0,79,0.00,,---,0.31,VWS V13.01,2013-12-09 23:16:00,
2013-12-09 18:21:00,35.7,29.8,30.11,SW,227,5.0,9.0,79,0.00,,---,0.31,VWS V13.01,2013-12-09 23:21:00,
2013-12-09 18:26:00,35.6,29.7,30.11,WSW,240,4.0,15.0,79,0.00,,---,0.31,VWS V13.01,2013-12-09 23:26:00,
2013-12-09 18:31:00,35.6,29.7,30.11,WSW,239,13.0,18.0,79,0.00,,---,0.31,VWS V13.01,2013-12-09 23:31:00,
2013-12-09 18:36:00,35.5,29.6,30.12,West,267,5.0,18.0,79,0.00,,---,0.31,VWS V13.01,2013-12-09 23:36:00,
2013-12-09 18:41:00,35.4,29.5,30.12,WSW,248,2.0,8.0,79,0.00,,---,0.31,VWS V13.01,2013-12-09 23:41:00,
2013-12-09 18:46:00,35.3,29.5,30.12,WSW,238,5.0,13.0,79,0.00,,---,0.31,VWS V13.01,2013-12-09 23:46:00,
2013-12-09 18:51:00,35.2,29.4,30.11,WSW,246,11.0,12.0,79,0.00,,---,0.31,VWS V13.01,2013-12-09 23:51:00,
2013-12-09 18:56:00,35.2,29.4,30.11,WSW,247,3.0,15.0,79,0.00,,---,0.31,VWS V13.01,2013-12-09 23:56:00,
2013-12-09 19:01:00,35.2,29.4,30.11,WSW,248,7.0,13.0,79,0.00,,---,0.31,VWS V13.01,2013-12-10 00:01:00,
2013-12-09 19:06:00,35.1,29.3,30.11,West,269,4.0,13.0,79,0.00,,---,0.31,VWS V13.01,2013-12-10 00:06:00,
2013-12-09 19:11:00,35.0,29.2,30.11,WSW,251,4.0,13.0,79,0.00,,---,0.31,VWS V13.01,2013-12-10 00:11:00,
2013-12-09 19:16:00,35.0,29.2,30.12,WSW,256,2.0,14.0,79,0.00,,---,0.31,VWS V13.01,2013-12-10 00:16:00,
2013-12-09 19:21:00,34.9,29.4,30.11,SW,232,6.0,10.0,80,0.00,,---,0.31,VWS V13.01,2013-12-10 00:21:00,
2013-12-09 19:26:00,34.9,29.4,30.12,WSW,248,3.0,13.0,80,0.00,,---,0.31,VWS V13.01,2013-12-10 00:26:00,
2013-12-09 19:31:00,34.8,29.3,30.12,WSW,256,3.0,7.0,80,0.00,,---,0.31,VWS V13.01,2013-12-10 00:31:00,
2013-12-09 19:36:00,34.8,29.3,30.12,WSW,257,5.0,7.0,80,0.00,,---,0.31,VWS V13.01,2013-12-10 00:36:00,
2013-12-09 19:41:00,34.7,29.2,30.12,WSW,247,6.0,9.0,80,0.00,,---,0.31,VWS V13.01,2013-12-10 00:41:00,
2013-12-09 19:46:00,34.7,29.2,30.12,WNW,283,7.0,14.0,80,0.00,,---,0.31,VWS V13.01,2013-12-10 00:46:00,
2013-12-09 19:51:00,34.6,29.1,30.12,WSW,247,9.0,10.0,80,0.00,,---,0.31,VWS V13.01,2013-12-10 00:51:00,
2013-12-09 19:56:00,34.6,28.8,30.13,SW,232,8.0,14.0,79,0.00,,---,0.31,VWS V13.01,2013-12-10 00:56:00,
2013-12-09 20:01:00,34.5,28.7,30.13,WSW,246,10.0,14.0,79,0.00,,---,0.31,VWS V13.01,2013-12-10 01:01:00,
2013-12-09 20:06:00,34.4,28.6,30.13,SW,231,5.0,14.0,79,0.00,,---,0.31,VWS V13.01,2013-12-10 01:06:00,
2013-12-09 20:11:00,34.4,28.6,30.13,WSW,248,4.0,16.0,79,0.00,,---,0.31,VWS V13.01,2013-12-10 01:11:00,
2013-12-09 20:16:00,34.4,28.6,30.13,WSW,258,4.0,16.0,79,0.00,,---,0.31,VWS V13.01,2013-12-10 01:16:00,
2013-12-09 20:21:00,34.3,28.5,30.13,WSW,241,12.0,12.0,79,0.00,,---,0.31,VWS V13.01,2013-12-10 01:21:00,
2013-12-09 20:26:00,34.2,28.4,30.13,WSW,244,8.0,13.0,79,0.00,,---,0.31,VWS V13.01,2013-12-10 01:26:00,
2013-12-09 20:31:00,34.1,28.3,30.13,WSW,240,7.0,9.0,79,0.00,,---,0.31,VWS V13.01,2013-12-10 01:31:00,
2013-12-09 20:36:00,34.1,28.6,30.13,WNW,300,7.0,10.0,80,0.00,,---,0.31,VWS V13.01,2013-12-10 01:36:00,
2013-12-09 20:41:00,33.9,28.4,30.13,WSW,252,4.0,10.0,80,0.00,,---,0.31,VWS V13.01,2013-12-10 01:41:00,
2013-12-09 20:46:00,33.8,28.3,30.13,NW,319,5.0,11.0,80,0.00,,---,0.31,VWS V13.01,2013-12-10 01:46:00,
2013-12-09 20:51:00,33.7,28.2,30.13,West,260,7.0,12.0,80,0.00,,---,0.31,VWS V13.01,2013-12-10 01:51:00,
2013-12-09 20:56:00,33.5,28.0,30.13,WNW,297,3.0,12.0,80,0.00,,---,0.31,VWS V13.01,2013-12-10 01:56:00,
2013-12-09 21:01:00,33.5,28.0,30.13,SW,220,5.0,12.0,80,0.00,,---,0.31,VWS V13.01,2013-12-10 02:01:00,
2013-12-09 21:06:00,33.4,28.2,30.13,WSW,248,8.0,12.0,81,0.00,,---,0.31,VWS V13.01,2013-12-10 02:06:00,
2013-12-09 21:11:00,33.3,28.1,30.13,WSW,241,3.0,7.0,81,0.00,,---,0.31,VWS V13.01,2013-12-10 02:11:00,
2013-12-09 21:16:00,33.3,28.1,30.13,WSW,252,6.0,12.0,81,0.00,,---,0.31,VWS V13.01,2013-12-10 02:16:00,
2013-12-09 21:21:00,33.2,28.0,30.13,WSW,242,2.0,11.0,81,0.00,,---,0.31,VWS V13.01,2013-12-10 02:21:00,
2013-12-09 21:26:00,33.2,28.0,30.13,West,269,3.0,11.0,81,0.00,,---,0.31,VWS V13.01,2013-12-10 02:26:00,
2013-12-09 21:31:00,33.1,27.9,30.13,WSW,251,5.0,12.0,81,0.00,,---,0.31,VWS V13.01,2013-12-10 02:31:00,
2013-12-09 21:36:00,33.1,27.9,30.13,SW,227,5.0,13.0,81,0.00,,---,0.31,VWS V13.01,2013-12-10 02:36:00,
2013-12-09 21:41:00,33.0,27.8,30.12,WSW,242,4.0,12.0,81,0.00,,---,0.31,VWS V13.01,2013-12-10 02:41:00,
2013-12-09 21:46:00,33.0,27.5,30.12,WSW,241,5.0,14.0,80,0.00,,---,0.31,VWS V13.01,2013-12-10 02:46:00,
2013-12-09 21:51:00,32.9,27.4,30.12,SW,229,6.0,10.0,80,0.00,,---,0.31,VWS V13.01,2013-12-10 02:51:00,
2013-12-09 21:56:00,32.9,27.4,30.12,SW,234,4.0,11.0,80,0.00,,---,0.31,VWS V13.01,2013-12-10 02:56:00,
2013-12-09 22:01:00,32.8,27.6,30.12,SW,216,5.0,11.0,81,0.00,,---,0.31,VWS V13.01,2013-12-10 03:01:00,
2013-12-09 22:06:00,32.8,27.3,30.12,WSW,245,8.0,11.0,80,0.00,,---,0.31,VWS V13.01,2013-12-10 03:06:00,
2013-12-09 22:11:00,32.8,27.3,30.12,WSW,242,8.0,10.0,80,0.00,,---,0.31,VWS V13.01,2013-12-10 03:11:00,
2013-12-09 22:16:00,32.7,27.2,30.12,WSW,247,5.0,14.0,80,0.00,,---,0.31,VWS V13.01,2013-12-10 03:16:00,
2013-12-09 22:21:00,32.7,26.9,30.12,WSW,244,6.0,12.0,79,0.00,,---,0.31,VWS V13.01,2013-12-10 03:21:00,
2013-12-09 22:26:00,32.6,26.8,30.12,SW,232,6.0,12.0,79,0.00,,---,0.31,VWS V13.01,2013-12-10 03:26:00,
2013-12-09 22:31:00,32.6,26.5,30.11,West,272,4.0,10.0,78,0.00,,---,0.31,VWS V13.01,2013-12-10 03:31:00,
2013-12-09 22:36:00,32.6,26.8,30.11,WSW,245,6.0,13.0,79,0.00,,---,0.31,VWS V13.01,2013-12-10 03:36:00,
2013-12-09 22:41:00,32.5,26.7,30.12,West,261,7.0,12.0,79,0.00,,---,0.31,VWS V13.01,2013-12-10 03:41:00,
2013-12-09 22:46:00,32.5,26.7,30.12,WSW,246,5.0,12.0,79,0.00,,---,0.31,VWS V13.01,2013-12-10 03:46:00,
2013-12-09 22:51:00,32.4,26.6,30.11,SW,218,7.0,8.0,79,0.00,,---,0.31,VWS V13.01,2013-12-10 03:51:00,
2013-12-09 22:56:00,32.3,26.5,30.11,WSW,239,6.0,10.0,79,0.00,,---,0.31,VWS V13.01,2013-12-10 03:56:00,
2013-12-09 23:01:00,32.2,26.4,30.11,West,265,4.0,7.0,79,0.00,,---,0.31,VWS V13.01,2013-12-10 04:01:00,
2013-12-09 23:06:00,32.0,26.5,30.10,SW,231,5.0,11.0,80,0.00,,---,0.31,VWS V13.01,2013-12-10 04:06:00,
2013-12-09 23:11:00,31.9,26.4,30.10,WSW,257,2.0,5.0,80,0.00,,---,0.31,VWS V13.01,2013-12-10 04:11:00,
2013-12-09 23:16:00,31.8,26.4,30.10,West,271,4.0,9.0,80,0.00,,---,0.31,VWS V13.01,2013-12-10 04:16:00,
2013-12-09 23:21:00,31.7,26.2,30.10,WNW,286,2.0,8.0,80,0.00,,---,0.31,VWS V13.01,2013-12-10 04:21:00,
2013-12-09 23:26:00,31.6,26.1,30.11,WSW,238,5.0,9.0,80,0.00,,---,0.31,VWS V13.01,2013-12-10 04:26:00,
2013-12-09 23:31:00,31.6,26.5,30.09,West,277,6.0,7.0,81,0.00,,---,0.31,VWS V13.01,2013-12-10 04:31:00,
2013-12-09 23:36:00,31.5,26.0,30.09,West,262,8.0,9.0,80,0.00,,---,0.31,VWS V13.01,2013-12-10 04:36:00,
2013-12-09 23:41:00,31.5,26.0,30.09,WSW,251,4.0,7.0,80,0.00,,---,0.31,VWS V13.01,2013-12-10 04:41:00,
2013-12-09 23:46:00,31.4,26.0,30.08,SW,225,5.0,9.0,80,0.00,,---,0.31,VWS V13.01,2013-12-10 04:46:00,
2013-12-09 23:51:00,31.3,25.9,30.08,West,271,4.0,7.0,80,0.00,,---,0.31,VWS V13.01,2013-12-10 04:51:00,
2013-12-09 23:56:00,31.2,25.8,30.10,WSW,241,4.0,9.0,80,0.00,,---,0.31,VWS V13.01,2013-12-10 04:56:00,